sat.trackr.live / text

‹ back to catalog

FLOCK 4H-33

NORAD 66736 · 2025-276BY

PAYLOAD ACTIVE UNKNOWN

§ Identity

Operator
Country
US
Launch date
2025-11-28
Launch site
AFWTR
Launch vehicle
Mass (kg)
RCS (m²)

Purposes: earth_obs

External: N2YO · Heavens-Above · Gunter

§ Orbital elements

Epoch: 2026-09-20T02:43:44.537088Z

Period
94.62 min
Inclination
97.4142°
Eccentricity
0.0001635
Mean motion
15.21868337 rev/d
Perigee alt
499.1 km
Apogee alt
501.3 km
Semi-major
6,878.3 km
B*
1.8839e-4
RAAN
335.6356°
Arg perigee
12.3783°
Mean anomaly
347.7493°
Rev number
4,487

§ Raw data

FLOCK 4H-331 66736U 25276BY  26263.11370992  .00004215  00000+0  18839-3 0  99942 66736  97.4142 335.6356 0001635  12.3783 347.7493 15.21868337 44871

JSON: /api/v1/satellites/66736 · /tle

For live sub-satellite position, see the globe view (requires WebGL).

§ Visibility from observer

Set your observer location to see the next 7 days of passes ≥ 10°. The values pass through the URL so the page stays shareable.

No JS? Fill the form by hand. The geolocation button needs JavaScript.